Погода в Семипалатинске

Хотите узнать прогноз погоды в Семипалатинске? Тогда Вам сюда: Погода в Семипалатинске

Поиск расширенной информации на нашем сайте:

Полезная информация:

Новости сайта



02.01.2020
Опубликован Долгосрочный прогноз погоды по городам России и ближнего зарубежья на январь 2020 года.
Карты: Прогноз на январь и февраль 2020 года, Сравнение прогнозируемой аномалии приземной температуры воздуха на январь 2020 года по разным моделям.




Погода в Семипалатинске - сегодня

Время (UTC), дата Ветер
(°,м/с) 
Видим.   Явления Облачность Т
(°С)
Тd
(°С)
f(%) Тe
(°С)
Pmin
(гПа)
dP
(гПа)
Po
(мм)
O2
(г/м3)
Тmin Tmax R s Состояние
почвы
12 19.10.20 тихо ()   10 км    8/0 средняя, верхняя 
[Ac trans|Ci fib]
+5.5 -0.3 66 +6  1034  -1.8  757  299           
15 19.10.20 тихо ()   н/о    6/0 средняя, верхняя 
[Ac trans|Ci fib]
+0.7 -2.9 77 +1  1033.1  -1.3  756  304    +8.1       
18 19.10.20 тихо ()   н/о    6/0 средняя, верхняя 
[Ac trans|Ci fib]
-0.6 -3.1 83 -1  1030.9  -2.2  755  305    +8.1       
21 19.10.20 тихо ()   н/о    4/0 верхняя 
[Ci fib]
-1.5 -3.7 85 -2  1028.7  -2.3  753  305           
00 20.10.20 050 (СВ) н/о    6/0 верхняя 
[Ci fib]
-3.4 -4.8 90 -6  1027  -1.8  752  307           
03 20.10.20 110 (В) 10 км    6/0 верхняя 
[Ci fib]
+0.1 -2 86 -1  1026.4  -0.3  751  303           
06 20.10.20 140 (ЮВ) 10 км    3/0 верхняя 
[Ci fib]
+10 +1.6 56 +10  1024  -1.4  750  291  -3.9         
09 20.10.20 тихо ()   10 км    4/0 верхняя 
[Ci fib]
+14.9 +3.8 47 +15  1022  -1.6  749  286           
12 20.10.20 тихо ()   10 км    ясно 
+9.8 +1.7 57 +10  1021.5  -0.9  748  291           
15 20.10.20 тихо ()   н/о    ясно 
+2.6 -4 62 +3  1022.3  0.2  749  299    +15.2       
18 20.10.20 тихо ()   н/о    ясно 
+0.4 -4.3 71 1021.5  -1  748  301    +15.2       
21 20.10.20 тихо ()   н/о    ясно 
-1.2 -5.1 75 -1  1020.4  -1.2  747  303           
00 21.10.20 тихо ()   н/о    ясно 
-2.3 -5.3 80 -2  1019.6  -0.9  746  304           
03 21.10.20 090 (В) 10 км    ясно 
+3.1 -1.7 71 +3  1017.8  -1.3  745  297           
06 21.10.20 160 (Ю) 10 км    3/0 верхняя 
[Ci fib]
+14.4 -1.1 34 +13  1014.5  -2.3  744  285  -2.3         
09 21.10.20 140 (ЮВ) 10 км    ясно 
+21 +2.9 30 +21  1010.3  -3.6  741  277           
12 21.10.20 160 (Ю) 10 км    ясно 
+15.8 +1.3 37 +16  1009.4  -1.2  740  282           
15 21.10.20 160 (Ю) н/о    ясно 
+10.7 -2.2 40 +9  1009.3  -0.6  740  287    +22.1       
18 21.10.20 160 (Ю) н/о    ясно 
+9 -1.6 47 +7  1008.4  -1  739  288    +22.1       
21 21.10.20 200 (Ю) н/о    ясно 
+10.4 +0.8 51 +8  1007.8  -0.4  738  286           
00 22.10.20 180 (Ю) н/о    9/0 средняя 
[Ac trans]
+10.7 +0.2 48 +9  1008.5  0.7  739  286           
03 22.10.20 200 (Ю) 10 км    9/8 1000 м средняя 
[Sc|Ac trans]
+11.3 +0.8 48 +10  1009.3  0.8  740  286           
06 22.10.20 250 (З) 10 км    9/8 1000 м средняя 
[Sc|Ac trans]
+10 +3.1 62 +8  1011.3  1.9  741  288  +7.7         
09 22.10.20 230 (ЮЗ) 10 км  в посл. час ливневой дождь  10/10 600 м кучево-дожд. 
[Cb calv]
+6 +3.4 83 +4  1013.7  743  292           
12 22.10.20 270 (З) 10 км  {ливн. осадки}  9/9 600 м кучево-дожд. 
[Cb calv]
+5.3 +2.4 82 +4  1016.9  745  294           
Время (UTC), дата Ветер
(°,м/с) 
Видим.   Явления Облачность Т
(°С)
Тd
(°С)
f(%) Тe
(°С)
Pmin
(гПа)
dP
(гПа)
Po
(мм)
O2
(г/м3)
Тmin Tmax R s Состояние
почвы

Для получения пояснительной информации подведите курсор к названию столбца.

ПОГОДА в Семипалатинске - архив

Всё, что Вы хотите узнать о погоде в Семипалатинске - удобно и подробно!

Выберите нужную дату (начиная с 1 января 2019* года) и нажмите кнопку "Найти".
Будут отображены архивные сводки погоды по пункту Семипалатинск, начиная с указанной даты.


Отображать данные в формате CSV (для использования в таблицах Excel)


Внимание! Наш архив погоды предназначен исключительно для личного некоммерческого использования в познавательных целях. Если Вам необходимы официальные справки о состоянии погоды (для производственных, юридических, коммерческих и т.п. целей), обращайтесь в органы Росгидромета.

*Примечание: данная дата относится к архиву по метеостанциям СССР (Россия, СНГ, Балтия).
Архив по метеостанциям Зарубежной Европы и Азии (кроме Китая) хранится 10 дней, по другим регионам земного шара (Китай, Африка, Америка, Австралия, Океания) - 1 день.

Семипалатинск - район местоположения метеостанции


Название, широта, долгота, высота метеостанции:
Семипалатинск 50.4°ш. 80.3°д. 196 м над ур. моря [Казахстан]

Дополнительная информация

В oтличие oт бoльшинства пoгoдных сайтoв мы публикуем пoдрoбную метеoинфoрмацию в детальнoм прoфессиoнальнoм фoрмате.

Характеристики температуры и влажнoсти вoздуха измеряются на высoте 2 м в тени вдали oт зданий и деревьев.
Скoрoсть ветра измеряется на высoте 10 м (на урoвне рoста челoвека скoрoсть ветра ниже в 1.5-2 раза). Если метеoстанция нахoдится в гoрoде или в лесу, тo скoрoсть ветра занижена на 2-4 м/с пo сравнению с oткрытым местoм. Скoрoсть ветра над акватoриями крупных рек и oзёр, а также на вершинах хoлмoв на 2-5 м/с выше, чем в oбычных услoвиях.
Атмoсфернoе давление в разных тoчках местнoсти мoжет значительнo oтличаться oт давления на метеoстанции, в зависимoсти oт услoвий рельефа (при пoдъёме на 10 м давление пoнижается примернo на 1 мм рт.ст.).